Regional Weather Roundup
Issued by NWS

Home | Current Version | Previous Version | Graphics & Text | Print | Product List | Glossary On
Versions: 1 2 3 4 5 6 7 8 9 10 11 12 13 14 15 16 17 18 19 20 21 22 23 24 25 26 27 28 29 30 31 32 33 34 35 36 37 38 39 40 41 42 43 44 45 46 47 48 49 50
000
ASUS43 KOAX 010010
RWRNE

WEATHER ROUNDUP FOR NEBRASKA
NATIONAL WEATHER SERVICE OMAHA NE
700 PM CDT FRI SEP 30 2016

NOTES: SATELLITE DATA IS BEING USED TO AUGMENT CLOUD COVER ABOVE
       12000 FEET.
       "FAIR" INDICATES FEW OR NO CLOUDS BELOW 12,000 FEET WITH NO
       SIGNIFICANT WEATHER AND/OR OBSTRUCTIONS TO VISIBILITY.

  * THESE STATIONS DO NOT REPORT WEATHER SUCH AS RAIN...SNOW OR FOG.

NEZ001>004-019>022-054>056-010100-
NEBRASKA PANHANDLE

CITY           SKY/WX    TMP DP  RH WIND       PRES   REMARKS
SCOTTSBLUFF    PTCLDY    66  49  54 SE9       30.11S
6HR MIN TEMP:  61; 6HR MAX TEMP:  70; 6HR PCP: TRACE;

ALLIANCE       CLOUDY    65  48  54 S8        30.11F
6HR MIN TEMP:  62; 6HR MAX TEMP:  69; 6HR PCP: TRACE;

CHADRON        CLOUDY    71  47  42 S14       30.05F
6HR MIN TEMP:  71; 6HR MAX TEMP:  77; 6HR PCP: TRACE;

KIMBALL        CLOUDY    67  49  51 E9        30.17S
SIDNEY         PTCLDY    67  46  47 SE9       30.16S
6HR MIN TEMP:  62; 6HR MAX TEMP:  75;

$$

NEZ057>060-069>072-079>082-010100-
SOUTHWEST NEBRASKA

CITY           SKY/WX    TMP DP  RH WIND       PRES   REMARKS
NORTH PLATTE   PTCLDY    64  46  52 E8        30.15S
6HR MIN TEMP:  64; 6HR MAX TEMP:  71;

IMPERIAL       PTCLDY    67  45  45 SE8       30.15R
6HR MIN TEMP:  67; 6HR MAX TEMP:  74;

LEXINGTON      MOCLDY    65  47  52 SE7       30.15F
MCCOOK         PTCLDY    66  47  50 SE10      30.14S
6HR MIN TEMP:  66; 6HR MAX TEMP:  72;

OGALLALA       CLOUDY    70  46  41 S8        30.14S
$$

NEZ005>010-023>029-035>040-094-010100-
NORTH CENTRAL NEBRASKA

CITY           SKY/WX    TMP DP  RH WIND       PRES   REMARKS
VALENTINE      PTCLDY    67  46  47 S8        30.12S
6HR MIN TEMP:  67; 6HR MAX TEMP:  74;

AINSWORTH      MOCLDY    64  47  53 SE8       30.15S
BROKEN BOW     PTCLDY    64  46  52 SE8       30.15F
6HR MIN TEMP:  64; 6HR MAX TEMP:  70;

O`NEILL        CLOUDY    64  42  44 S5        30.17S
ORD            MOCLDY    64  42  44 SE5       30.15F
6HR MIN TEMP:  64; 6HR MAX TEMP:  70;

THEDFORD       MOCLDY    68  46  46 S8        30.15S
$$

NEZ041-046>049-061>064-073>077-083>087-010100-
SOUTH CENTRAL NEBRASKA

CITY           SKY/WX    TMP DP  RH WIND       PRES   REMARKS
GRAND ISLAND   MOCLDY    64  46  52 E5        30.16F
AURORA         MOCLDY    64  48  55 E6        30.16S
HASTINGS       PTCLDY    68  42  38 SE6       30.16F
6HR MIN TEMP:  66; 6HR MAX TEMP:  72;

HEBRON         MOCLDY    66  48  52 CALM      30.15S
HOLDREGE       PTCLDY    64  44  48 S6        30.16S
KEARNEY *      CLOUDY    66  41  39 SE6       30.15S
YORK           CLOUDY    64  46  52 E5        30.16F
$$

NEZ011>018-030>034-042>045-010100-
NORTHEAST NEBRASKA

CITY           SKY/WX    TMP DP  RH WIND       PRES   REMARKS
NORFOLK        CLOUDY    64  43  46 SE6       30.16S
6HR MIN TEMP:  64; 6HR MAX TEMP:  73;

ALBION         CLOUDY    65  47  50 SE3       30.17S
BLAIR          CLEAR     66  50  56 NW3       30.15F
FREMONT        CLOUDY    63  50  62 CALM      30.16F
TEKAMAH        CLEAR     65  47  52 E3        30.15S
6HR MIN TEMP:  65; 6HR MAX TEMP:  76;

WAYNE          PTCLDY    63  50  63 CALM      30.17S
$$

NEZ050>053-065>068-078-088>093-010100-
SOUTHEAST NEBRASKA

CITY           SKY/WX    TMP DP  RH WIND       PRES   REMARKS
LINCOLN        PTCLDY    64  49  57 N5        30.16F
6HR MIN TEMP:  64; 6HR MAX TEMP:  76;

OMAHA EPPLEY   PTCLDY    68  50  52 E7        30.14F
6HR MIN TEMP:  68; 6HR MAX TEMP:  77;

BEATRICE       MOCLDY    68  47  47 CALM      30.15S
FALLS CITY     CLEAR     69  46  43 NE3       30.13S
6HR MIN TEMP:  69; 6HR MAX TEMP:  76;

NEBRASKA CITY  CLOUDY    67  39  35 CALM      30.14S
PLATTSMOUTH    CLEAR     67  42  40 N3        30.15S
$$

NEZ044-045-051>053-067-010100-
OMAHA AREA

CITY           SKY/WX    TMP DP  RH WIND       PRES   REMARKS
OMAHA EPPLEY   PTCLDY    68  50  52 E7        30.14F
6HR MIN TEMP:  68; 6HR MAX TEMP:  77;

BLAIR          CLEAR     66  50  56 NW3       30.15F
FREMONT        CLOUDY    63  50  62 CALM      30.16F
MILLARD        CLEAR     65  53  65 CALM      30.15S
OFFUTT AFB     CLEAR     62  54  76 N2        30.13F
PLATTSMOUTH    CLEAR     67  42  40 N3        30.15S
WAHOO          FAIR      64  48  54 CALM      30.15F
$$



USA.gov is the U.S. government's official web portal to all federal, state and local government web resources and services.